HAWK-11A (62382 NORAD) Tracking and Keplerian Element Data

This shows tracking and keplerian element data for the satellite.

Feedback or suggestion? Click here.




ElementValue
Catalog62382
NameHAWK-11A
Epoch Orbit671
Epoch Day33.66396946
Epoch Year2025
RAAN128.0618
Inclination44.9848
Eccentricity0.000274
Argument of Perigee261.8199
Mean Anonmoly98.237
Mean Motion15.19756849
Decay Rate0.00018631
L11 62382U 24247F 25033.66396946 .00018631 00000+0 86617-3 0 9991
L22 62382 44.9848 128.0618 0002740 261.8199 98.2370 15.19756849 6713



Live tracking and technical data element details for HAWK-11A (NORAD 62382). HAWK-11A can be tracked NOW for your location showing map with azimuth and elevation plus other details from your city location.







IsCatalogInMostPopularTable: catalog: 62382, numindb: 29
Update: records affected: 1



GetName: 62382 HAWK-11A

Hit Count: updated at: Sun, 18 May 2025 23:08:28 GMT